Regional Weather Roundup
Issued by NWS

Home | Current Version | Previous Version | Text Only | Print | Product List | Glossary Off
Versions: 1 2 3 4 5 6 7 8 9 10 11 12 13 14 15 16 17 18 19 20 21 22 23 24 25 26 27 28 29 30 31 32 33 34 35 36 37 38 39 40 41 42 43 44 45 46 47 48 49 50

000
ASUS43 KBIS 241520
RWRND

NORTH DAKOTA REGIONAL WEATHER ROUNDUP
NATIONAL WEATHER SERVICE BISMARCK ND
1000 AM CDT THU JUL 24 2014

NOTE: "FAIR" INDICATES FEW OR NO CLOUDS BELOW 12,000 FEET WITH NO
SIGNIFICANT WEATHER AND/OR OBSTRUCTIONS TO VISIBILITY.


NDZ001>003-009>011-017-241600-
NORTHWEST NORTH DAKOTA

CITY           SKY/WX    TMP DP  RH WIND       PRES   REMARKS
WILLISTON      PTSUNNY   73  59  61 SE21      29.85S
MINOT          CLOUDY    64  60  87 SE15G23   29.86S
MINOT AFB      CLOUDY    64  64  99 E7        29.87R
$$

NDZ018>021-031>035-040>046-241600-
SOUTHWEST NORTH DAKOTA

CITY           SKY/WX    TMP DP  RH WIND       PRES   REMARKS
BISMARCK       CLOUDY    65  61  87 NE17      29.96F
DICKINSON      PTSUNNY   66  61  84 E22G29    29.85F
GARRISON         N/A     64  62  93 E16G24    29.89F
HETTINGER ARPT PTSUNNY   66  60  81 E10       29.89F
$$

NDZ004>008-012>016-024-026-027-054-241600-
NORTHEAST NORTH DAKOTA

CITY           SKY/WX    TMP DP  RH WIND       PRES   REMARKS
GRAND FORKS    CLOUDY    68  60  75 S9        30.03F
GRND FRKS AFB  PTSUNNY   69  62  81 S7        30.06S
DEVILS LAKE    CLOUDY    64  57  77 SW10      30.11R
$$

NDZ022-023-025-028>030-036>039-047>053-241600-
SOUTHEAST NORTH DAKOTA

CITY           SKY/WX    TMP DP  RH WIND       PRES   REMARKS
FARGO          PTSUNNY   73  59  61 S13       30.04F
JAMESTOWN      CLOUDY    66  58  75 N7        30.05R
$$




USA.gov is the U.S. government's official web portal to all federal, state and local government web resources and services.